Overview Statistics Trail Chart Weather Telemetry Raw packets
 

This is the latest recevied weather packets stored in our database for station/object KB1RMA-4. If no packets are shown the sender has not sent any weather packets the latest 10 day(s).

<< 64 65 66 67 68 69 70 >>
Time Temp. Humidity Pressure Rain* Wind** Luminosity Snow
1788188429 21.11° C 50% 1021.2 hPa 0 mm - 717 W/m² -
1788188122 22.22° C 49% 1021 hPa 0 mm - 716 W/m² -
1788187819 21.67° C 52% 1021.1 hPa 0 mm - 728 W/m² -
1788187514 21.67° C 51% 1021.1 hPa 0 mm - 722 W/m² -
1788187210 21.67° C 51% 1021 hPa 0 mm - 737 W/m² -
1788186904 21.67° C 52% 1021.1 hPa 0 mm - 731 W/m² -
1788186600 21.11° C 53% 1021 hPa 0 mm - 729 W/m² -
1788186296 21.67° C 52% 1021.2 hPa 0 mm - 710 W/m² -
1788185990 21.67° C 50% 1021 hPa 0 mm - 707 W/m² -
1788185684 21.11° C 51% 1021 hPa 0 mm - 709 W/m² -
1788185379 20.56° C 53% 1021 hPa 0 mm - 702 W/m² -
1788185079 20° C 53% 1021 hPa 0 mm - 695 W/m² -
1788184778 20° C 52% 1020.9 hPa 0 mm - 121 W/m² -
1788184477 20° C 56% 1021 hPa 0 mm - 53 W/m² -
1788184172 20° C 54% 1021.3 hPa 0 mm - 88 W/m² -
1788183869 20° C 54% 1021 hPa 0 mm - 55 W/m² -
1788183568 20° C 54% 1020.8 hPa 0 mm - 69 W/m² -
1788183268 20° C 56% 1020.9 hPa 0 mm - 49 W/m² -
1788182963 19.44° C 59% 1020.7 hPa 0 mm - 117 W/m² -
1788182659 19.44° C 54% 1020.9 hPa 0 mm - 69 W/m² -
1788182359 19.44° C 53% 1020.8 hPa 0 mm - 53 W/m² -
1788182054 18.89° C 56% 1020.9 hPa 0 mm - 46 W/m² -
1788181749 18.89° C 56% 1020.8 hPa 0 mm - 46 W/m² -
1788181445 18.33° C 61% 1020.8 hPa 0 mm - 46 W/m² -
1788181144 18.89° C 63% 1020.7 hPa 0 mm - 46 W/m² -

* Rain latest hour (hover to see other rain measurements)
** Current wind speed in m/s (hover to see current wind gust speed)